Miscellaneous Local Product
Issued by NWS Hastings, NE

Home | Current Version | Previous Version | Text Only | Print | Product List | Glossary Off
Versions: 1 2 3 4 5 6 7 8 9 10 11 12 13 14 15 16 17 18 19 20 21 22 23 24 25 26 27 28 29 30 31 32 33 34 35 36 37 38 39 40 41 42 43 44 45 46 47 48 49 50

183
AXUS43 KGID 260202
MISGRI

GID CWA HOURLY WEATHER ROUNDUP
NATIONAL WEATHER SERVICE HASTINGS NE
800 PM CST SAT FEB 25 2017

NOTE: "FAIR" INDICATES FEW OR NO CLOUDS BELOW 12,000 FEET WITH NO
SIGNIFICANT WEATHER AND/OR OBSTRUCTIONS TO VISIBILITY.

...SOUTH CENTRAL NEBRASKA...

CITY           SKY/WX    TMP DP  RH WIND       PRES   REMARKS
GRAND ISLAND   PTCLDY    32  25  75 W9        29.88F WCI  24
HASTINGS       CLEAR     31  22  69 W7        29.90S WCI  24
KEARNEY        CLEAR     32  19  59 W3        29.88F
ORD            CLOUDY    29  19  66 SW8       29.85S WCI  21
YORK           CLOUDY    32  28  86 SW7       29.89F WCI  26
AURORA         CLOUDY    30  24  78 W6        29.88F WCI  24
LEXINGTON      CLEAR     27  20  75 SW5       29.87F WCI  22
HOLDREGE       CLEAR     30  19  64 CALM      29.88F
HEBRON         MOCLDY    36  29  73 CALM      29.92F

...NEBRASKA PANHANDLE...

CITY           SKY/WX    TMP DP  RH WIND       PRES   REMARKS
CHADRON        CLEAR     19   7  59 SW16      29.74F WCI   4
ALLIANCE       CLEAR     16   9  74 W13       29.75F WCI   2
SCOTTSBLUFF    CLOUDY    25  12  58 W17       29.77F WCI  12
SIDNEY         CLOUDY    22  14  71 W7        29.81S WCI  13

...WESTERN AND NORTH CENTRAL NEBRASKA...

CITY           SKY/WX    TMP DP  RH WIND       PRES   REMARKS
VALENTINE      MOCLDY    22  16  78 CALM      29.78F
AINSWORTH      CLOUDY    25  20  82 SW9       29.79F WCI  16
ONEILL         CLOUDY    22  18  81 SW7       29.82F WCI  14
BROKEN BOW     CLOUDY    19  16  88 CALM      29.84F
IMPERIAL       CLOUDY    28  21  75 CALM      29.86S
NORTH PLATTE   CLOUDY    24  15  68 SW5       29.85F WCI  18
MCCOOK         CLEAR     27  12  53 NW7       29.89F WCI  19

...EASTERN NEBRASKA...

CITY           SKY/WX    TMP DP  RH WIND       PRES   REMARKS
NORFOLK        CLOUDY    27  20  75 S14       29.85F WCI  16
SO SIOUX CITY  CLEAR     23  15  71 SE10      29.88F WCI  12
TEKAMAH        CLEAR     20  15  81 SE7       29.91F WCI  11
COLUMBUS       CLEAR     28  21  74 SW5       29.89F WCI  23
ALBION         CLOUDY    28  20  71 CALM      29.86F
OMAHA EPPLEY   PTCLDY    33  21  61 S13       29.93F WCI  24
OFFUTT AFB     CLOUDY    32  21  65 S7        29.93F WCI  25
MILLARD        PTCLDY    33  23  67 SE6       29.93F WCI  27
LINCOLN        CLEAR     32  23  69 S3        29.92F
NEBRASKA CITY  CLOUDY    33  19  57 S8        29.95F WCI  26
BEATRICE       CLOUDY    37  21  51 S7        29.93F WCI  32
FALLS CITY     CLOUDY    36  17  46 S8        29.97F WCI  30

...NORTHERN KANSAS...

CITY           SKY/WX    TMP DP  RH WIND       PRES   REMARKS
GOODLAND       CLEAR     20   6  55 E8        29.83F WCI  10
HILL CITY      CLEAR     27  14  58 N6        29.91S WCI  20
PHILLIPSBURG   CLEAR     30  18  59 NW6       29.92S WCI  24
SMITH CENTER   MOCLDY    32  18  55 CALM      29.92F
HAYS           CLOUDY    39  13  34 W6        29.92S WCI  35
RUSSELL        MOCLDY    34  15  46 S12       29.90F WCI  25
CONCORDIA      CLOUDY    37  16  42 S13       29.92F WCI  29
SALINA         CLEAR     37  13  37 S13       29.96F WCI  29
TOPEKA         CLOUDY    38  14  37 S5        30.02F WCI  34



USA.gov is the U.S. government's official web portal to all federal, state and local government web resources and services.